Time,TemperatureF,DewpointF,PressureIn,WindDirection,WindDirectionDegrees,WindSpeedMPH,WindSpeedGustMPH,Humidity,HourlyPrecipIn,Conditions,Clouds,dailyrainin,SoftwareType,DateUTC
2013-01-10 00:00:00,29.8,22.5,30.50,West,270,0.0,0.0,74,0.00,,,0.00,WUHU21623XXSP,2013-01-10 05:00:00,
2013-01-10 00:01:00,29.8,22.5,30.50,West,270,0.0,0.0,74,0.00,,,0.00,WUHU21623XXSP,2013-01-10 05:01:00,
2013-01-10 00:03:00,29.8,22.5,30.50,West,270,0.0,0.0,74,0.00,,,0.00,WUHU21623XXSP,2013-01-10 05:03:00,
2013-01-10 00:09:00,29.8,22.5,30.50,West,270,0.0,0.0,74,0.00,,,0.00,WUHU21623XXSP,2013-01-10 05:09:00,
2013-01-10 00:14:00,29.7,22.7,30.51,West,270,0.0,0.0,75,0.00,,,0.00,WUHU21623XXSP,2013-01-10 05:14:00,
2013-01-10 00:19:00,29.5,22.5,30.51,West,270,0.0,0.0,75,0.00,,,0.00,WUHU21623XXSP,2013-01-10 05:19:00,
2013-01-10 00:24:00,29.5,22.5,30.52,West,270,0.0,0.0,75,0.00,,,0.00,WUHU21623XXSP,2013-01-10 05:24:00,
2013-01-10 00:29:00,29.1,22.2,30.52,West,270,0.0,0.0,75,0.00,,,0.00,WUHU21623XXSP,2013-01-10 05:29:00,
2013-01-10 00:34:00,29.1,22.2,30.52,West,270,0.0,0.0,75,0.00,,,0.00,WUHU21623XXSP,2013-01-10 05:34:00,
2013-01-10 00:39:00,28.9,22.0,30.52,West,270,0.0,0.0,75,0.00,,,0.00,WUHU21623XXSP,2013-01-10 05:39:00,
2013-01-10 00:44:00,28.9,22.0,30.52,West,270,0.0,0.0,75,0.00,,,0.00,WUHU21623XXSP,2013-01-10 05:44:00,
2013-01-10 00:49:00,28.8,21.8,30.52,West,270,0.0,0.0,75,0.00,,,0.00,WUHU21623XXSP,2013-01-10 05:49:00,
2013-01-10 00:54:00,28.6,21.9,30.52,West,270,0.0,0.0,76,0.00,,,0.00,WUHU21623XXSP,2013-01-10 05:54:00,
2013-01-10 00:59:00,28.6,21.9,30.52,West,270,0.0,0.0,76,0.00,,,0.00,WUHU21623XXSP,2013-01-10 05:59:00,
2013-01-10 01:04:00,28.6,21.9,30.52,West,270,0.0,0.0,76,0.00,,,0.00,WUHU21623XXSP,2013-01-10 06:04:00,
2013-01-10 01:09:00,28.6,21.9,30.52,West,270,0.0,0.0,76,0.00,,,0.00,WUHU21623XXSP,2013-01-10 06:09:00,
2013-01-10 01:14:00,28.2,21.9,30.53,West,270,0.0,0.0,77,0.00,,,0.00,WUHU21623XXSP,2013-01-10 06:14:00,
2013-01-10 01:19:00,28.2,21.9,30.52,West,270,0.0,0.0,77,0.00,,,0.00,WUHU21623XXSP,2013-01-10 06:19:00,
2013-01-10 01:24:00,28.2,21.9,30.52,West,270,0.0,0.0,77,0.00,,,0.00,WUHU21623XXSP,2013-01-10 06:24:00,
2013-01-10 01:29:00,28.0,21.7,30.52,West,270,0.0,0.0,77,0.00,,,0.00,WUHU21623XXSP,2013-01-10 06:29:00,
2013-01-10 01:34:00,28.0,21.7,30.52,West,270,0.0,0.0,77,0.00,,,0.00,WUHU21623XXSP,2013-01-10 06:34:00,
2013-01-10 01:39:00,28.0,21.7,30.52,West,270,0.0,0.0,77,0.00,,,0.00,WUHU21623XXSP,2013-01-10 06:39:00,
2013-01-10 01:44:00,28.0,21.7,30.52,West,270,0.0,0.0,77,0.00,,,0.00,WUHU21623XXSP,2013-01-10 06:44:00,
2013-01-10 01:49:00,28.0,21.7,30.52,West,270,0.0,0.0,77,0.00,,,0.00,WUHU21623XXSP,2013-01-10 06:49:00,
2013-01-10 01:54:00,28.0,21.7,30.52,West,270,0.0,0.0,77,0.00,,,0.00,WUHU21623XXSP,2013-01-10 06:54:00,
2013-01-10 01:59:00,27.9,21.5,30.51,West,270,0.0,0.0,77,0.00,,,0.00,WUHU21623XXSP,2013-01-10 06:59:00,
2013-01-10 02:04:00,27.7,21.4,30.51,West,270,0.0,0.0,77,0.00,,,0.00,WUHU21623XXSP,2013-01-10 07:04:00,
2013-01-10 02:09:00,27.7,21.4,30.51,West,270,0.0,0.0,77,0.00,,,0.00,WUHU21623XXSP,2013-01-10 07:09:00,
2013-01-10 02:14:00,27.5,21.2,30.51,West,270,0.0,0.0,77,0.00,,,0.00,WUHU21623XXSP,2013-01-10 07:14:00,
2013-01-10 02:19:00,27.5,21.2,30.51,West,270,0.0,0.0,77,0.00,,,0.00,WUHU21623XXSP,2013-01-10 07:19:00,
2013-01-10 02:24:00,27.3,21.0,30.52,West,270,0.0,0.0,77,0.00,,,0.00,WUHU21623XXSP,2013-01-10 07:24:00,
2013-01-10 02:29:00,27.3,21.0,30.51,West,270,0.0,0.0,77,0.00,,,0.00,WUHU21623XXSP,2013-01-10 07:29:00,
2013-01-10 02:34:00,27.1,20.8,30.51,West,270,0.0,0.0,77,0.00,,,0.00,WUHU21623XXSP,2013-01-10 07:34:00,
2013-01-10 02:39:00,27.1,20.8,30.51,West,270,0.0,0.0,77,0.00,,,0.00,WUHU21623XXSP,2013-01-10 07:39:00,
2013-01-10 02:44:00,27.0,20.6,30.51,West,270,0.0,0.0,77,0.00,,,0.00,WUHU21623XXSP,2013-01-10 07:44:00,
2013-01-10 02:49:00,27.0,20.9,30.51,West,270,0.0,0.0,78,0.00,,,0.00,WUHU21623XXSP,2013-01-10 07:49:00,
2013-01-10 02:54:00,27.0,20.9,30.51,West,270,0.0,0.0,78,0.00,,,0.00,WUHU21623XXSP,2013-01-10 07:54:00,
2013-01-10 02:59:00,26.8,20.8,30.51,West,270,0.0,0.0,78,0.00,,,0.00,WUHU21623XXSP,2013-01-10 07:59:00,
2013-01-10 03:04:00,26.8,20.8,30.51,West,270,0.0,0.0,78,0.00,,,0.00,WUHU21623XXSP,2013-01-10 08:04:00,
2013-01-10 03:09:00,26.8,20.8,30.51,West,270,0.0,0.0,78,0.00,,,0.00,WUHU21623XXSP,2013-01-10 08:09:00,
2013-01-10 03:14:00,26.6,20.6,30.51,West,270,0.0,0.0,78,0.00,,,0.00,WUHU21623XXSP,2013-01-10 08:14:00,
2013-01-10 03:19:00,26.6,20.6,30.51,West,270,0.0,0.0,78,0.00,,,0.00,WUHU21623XXSP,2013-01-10 08:19:00,
2013-01-10 03:24:00,26.4,20.4,30.51,West,270,0.0,0.0,78,0.00,,,0.00,WUHU21623XXSP,2013-01-10 08:24:00,
2013-01-10 03:29:00,26.4,20.4,30.51,West,270,0.0,0.0,78,0.00,,,0.00,WUHU21623XXSP,2013-01-10 08:29:00,
2013-01-10 03:34:00,26.4,20.4,30.50,West,270,0.0,0.0,78,0.00,,,0.00,WUHU21623XXSP,2013-01-10 08:34:00,
2013-01-10 03:39:00,26.2,20.2,30.51,West,270,0.0,0.0,78,0.00,,,0.00,WUHU21623XXSP,2013-01-10 08:39:00,
2013-01-10 03:44:00,26.2,20.2,30.51,West,270,0.0,0.0,78,0.00,,,0.00,WUHU21623XXSP,2013-01-10 08:44:00,
2013-01-10 03:49:00,26.2,20.2,30.50,West,270,0.0,0.0,78,0.00,,,0.00,WUHU21623XXSP,2013-01-10 08:49:00,
2013-01-10 03:54:00,26.2,20.6,30.50,West,270,0.0,0.0,79,0.00,,,0.00,WUHU21623XXSP,2013-01-10 08:54:00,
2013-01-10 03:59:00,26.2,20.6,30.50,West,270,0.0,0.0,79,0.00,,,0.00,WUHU21623XXSP,2013-01-10 08:59:00,
2013-01-10 04:04:00,26.2,20.6,30.50,West,270,0.0,0.0,79,0.00,,,0.00,WUHU21623XXSP,2013-01-10 09:04:00,
2013-01-10 04:09:00,26.2,20.6,30.50,West,270,0.0,0.0,79,0.00,,,0.00,WUHU21623XXSP,2013-01-10 09:09:00,
2013-01-10 04:14:00,26.2,20.6,30.50,West,270,0.0,0.0,79,0.00,,,0.00,WUHU21623XXSP,2013-01-10 09:14:00,
2013-01-10 04:19:00,26.2,20.6,30.50,West,270,0.0,0.0,79,0.00,,,0.00,WUHU21623XXSP,2013-01-10 09:19:00,
2013-01-10 04:24:00,26.1,20.4,30.50,West,270,0.0,0.0,79,0.00,,,0.00,WUHU21623XXSP,2013-01-10 09:24:00,
2013-01-10 04:29:00,25.9,20.2,30.51,West,270,0.0,0.0,79,0.00,,,0.00,WUHU21623XXSP,2013-01-10 09:29:00,
2013-01-10 04:34:00,25.9,20.2,30.50,West,270,0.0,0.0,79,0.00,,,0.00,WUHU21623XXSP,2013-01-10 09:34:00,
2013-01-10 04:39:00,25.9,20.2,30.50,West,270,0.0,0.0,79,0.00,,,0.00,WUHU21623XXSP,2013-01-10 09:39:00,
2013-01-10 04:44:00,25.7,20.1,30.50,West,270,0.0,0.0,79,0.00,,,0.00,WUHU21623XXSP,2013-01-10 09:44:00,
2013-01-10 04:49:00,25.7,20.1,30.50,West,270,0.0,0.0,79,0.00,,,0.00,WUHU21623XXSP,2013-01-10 09:49:00,
2013-01-10 04:54:00,25.7,20.1,30.50,West,270,0.0,0.0,79,0.00,,,0.00,WUHU21623XXSP,2013-01-10 09:54:00,
2013-01-10 04:59:00,25.7,20.1,30.49,West,270,0.0,0.0,79,0.00,,,0.00,WUHU21623XXSP,2013-01-10 09:59:00,
2013-01-10 05:04:00,25.7,20.1,30.49,West,270,0.0,0.0,79,0.00,,,0.00,WUHU21623XXSP,2013-01-10 10:04:00,
2013-01-10 05:09:00,25.7,20.1,30.49,West,270,0.0,0.0,79,0.00,,,0.00,WUHU21623XXSP,2013-01-10 10:09:00,
2013-01-10 05:14:00,25.5,19.9,30.49,West,270,0.0,0.0,79,0.00,,,0.00,WUHU21623XXSP,2013-01-10 10:14:00,
2013-01-10 05:19:00,25.5,19.9,30.49,West,270,0.0,0.0,79,0.00,,,0.00,WUHU21623XXSP,2013-01-10 10:19:00,
2013-01-10 05:25:00,25.3,19.7,30.49,West,270,0.0,0.0,79,0.00,,,0.00,WUHU21623XXSP,2013-01-10 10:25:00,
2013-01-10 05:30:00,25.3,19.7,30.50,West,270,0.0,0.0,79,0.00,,,0.00,WUHU21623XXSP,2013-01-10 10:30:00,
2013-01-10 05:35:00,25.3,19.7,30.49,West,270,0.0,0.0,79,0.00,,,0.00,WUHU21623XXSP,2013-01-10 10:35:00,
2013-01-10 05:40:00,25.2,19.6,30.49,West,270,0.0,0.0,79,0.00,,,0.00,WUHU21623XXSP,2013-01-10 10:40:00,
2013-01-10 05:45:00,25.2,19.6,30.49,West,270,0.0,0.0,79,0.00,,,0.00,WUHU21623XXSP,2013-01-10 10:45:00,
2013-01-10 05:50:00,25.2,19.6,30.49,West,270,0.0,0.0,79,0.00,,,0.00,WUHU21623XXSP,2013-01-10 10:50:00,
2013-01-10 05:55:00,25.0,19.7,30.49,West,270,0.0,0.0,80,0.00,,,0.00,WUHU21623XXSP,2013-01-10 10:55:00,
2013-01-10 06:00:00,25.0,19.7,30.49,West,270,0.0,0.0,80,0.00,,,0.00,WUHU21623XXSP,2013-01-10 11:00:00,
2013-01-10 06:04:00,25.0,19.7,30.49,West,270,0.0,0.0,80,0.00,,,0.00,WUHU21623XXSP,2013-01-10 11:04:00,
2013-01-10 06:09:00,25.0,19.7,30.49,West,270,0.0,0.0,80,0.00,,,0.00,WUHU21623XXSP,2013-01-10 11:09:00,
2013-01-10 06:15:00,25.0,19.7,30.49,West,270,0.0,0.0,80,0.00,,,0.00,WUHU21623XXSP,2013-01-10 11:15:00,
2013-01-10 06:19:00,25.0,19.7,30.50,West,270,0.0,0.0,80,0.00,,,0.00,WUHU21623XXSP,2013-01-10 11:19:00,
2013-01-10 06:24:00,25.0,19.7,30.50,West,270,0.0,0.0,80,0.00,,,0.00,WUHU21623XXSP,2013-01-10 11:24:00,
2013-01-10 06:29:00,24.8,19.6,30.50,West,270,0.0,0.0,80,0.00,,,0.00,WUHU21623XXSP,2013-01-10 11:29:00,
2013-01-10 06:34:00,24.6,19.4,30.50,West,270,0.0,0.0,80,0.00,,,0.00,WUHU21623XXSP,2013-01-10 11:34:00,
2013-01-10 06:39:00,24.6,19.4,30.50,West,270,0.0,0.0,80,0.00,,,0.00,WUHU21623XXSP,2013-01-10 11:39:00,
2013-01-10 06:44:00,24.6,19.4,30.50,West,270,0.0,0.0,80,0.00,,,0.00,WUHU21623XXSP,2013-01-10 11:44:00,
2013-01-10 06:49:00,24.6,19.4,30.50,West,270,0.0,0.0,80,0.00,,,0.00,WUHU21623XXSP,2013-01-10 11:49:00,
2013-01-10 06:54:00,24.6,19.4,30.50,West,270,0.0,0.0,80,0.00,,,0.00,WUHU21623XXSP,2013-01-10 11:54:00,
2013-01-10 06:59:00,24.6,19.4,30.50,West,270,0.0,0.0,80,0.00,,,0.00,WUHU21623XXSP,2013-01-10 11:59:00,
2013-01-10 07:04:00,24.6,19.4,30.50,West,270,0.0,0.0,80,0.00,,,0.00,WUHU21623XXSP,2013-01-10 12:04:00,
2013-01-10 07:09:00,24.6,19.4,30.50,West,270,0.0,0.0,80,0.00,,,0.00,WUHU21623XXSP,2013-01-10 12:09:00,
2013-01-10 07:14:00,24.6,19.4,30.50,West,270,0.0,0.0,80,0.00,,,0.00,WUHU21623XXSP,2013-01-10 12:14:00,
2013-01-10 07:19:00,24.6,19.7,30.49,West,270,0.0,0.0,81,0.00,,,0.00,WUHU21623XXSP,2013-01-10 12:19:00,
2013-01-10 07:24:00,24.6,19.7,30.50,West,270,0.0,0.0,81,0.00,,,0.00,WUHU21623XXSP,2013-01-10 12:24:00,
2013-01-10 07:29:00,24.6,19.7,30.50,West,270,0.0,0.0,81,0.00,,,0.00,WUHU21623XXSP,2013-01-10 12:29:00,
2013-01-10 07:34:00,24.6,19.7,30.50,West,270,0.0,0.0,81,0.00,,,0.00,WUHU21623XXSP,2013-01-10 12:34:00,
2013-01-10 07:39:00,24.6,19.7,30.50,West,270,0.0,0.0,81,0.00,,,0.00,WUHU21623XXSP,2013-01-10 12:39:00,
2013-01-10 07:44:00,24.6,19.7,30.50,West,270,0.0,0.0,81,0.00,,,0.00,WUHU21623XXSP,2013-01-10 12:44:00,
2013-01-10 07:49:00,24.6,19.7,30.50,West,270,0.0,0.0,81,0.00,,,0.00,WUHU21623XXSP,2013-01-10 12:49:00,
2013-01-10 07:54:00,25.0,20.0,30.50,West,270,0.0,0.0,81,0.00,,,0.00,WUHU21623XXSP,2013-01-10 12:54:00,
2013-01-10 08:00:00,25.0,20.0,30.50,West,270,0.0,0.0,81,0.00,,,0.00,WUHU21623XXSP,2013-01-10 13:00:00,
2013-01-10 08:05:00,25.0,20.0,30.50,West,270,0.0,0.0,81,0.00,,,0.00,WUHU21623XXSP,2013-01-10 13:05:00,
2013-01-10 08:09:00,25.2,20.2,30.49,West,270,0.0,0.0,81,0.00,,,0.00,WUHU21623XXSP,2013-01-10 13:09:00,
2013-01-10 08:14:00,25.3,20.3,30.49,West,270,0.0,0.0,81,0.00,,,0.00,WUHU21623XXSP,2013-01-10 13:14:00,
2013-01-10 08:19:00,25.5,20.5,30.49,West,270,0.0,0.0,81,0.00,,,0.00,WUHU21623XXSP,2013-01-10 13:19:00,
2013-01-10 08:24:00,25.5,20.5,30.49,West,270,0.0,0.0,81,0.00,,,0.00,WUHU21623XXSP,2013-01-10 13:24:00,
2013-01-10 08:30:00,25.9,21.1,30.49,West,270,0.0,0.0,82,0.00,,,0.00,WUHU21623XXSP,2013-01-10 13:30:00,
2013-01-10 08:34:00,26.2,21.4,30.49,West,270,0.0,0.0,82,0.00,,,0.00,WUHU21623XXSP,2013-01-10 13:34:00,
2013-01-10 08:39:00,26.2,21.4,30.49,West,270,0.0,0.0,82,0.00,,,0.00,WUHU21623XXSP,2013-01-10 13:39:00,
2013-01-10 08:44:00,26.8,22.0,30.49,West,270,0.0,0.0,82,0.00,,,0.00,WUHU21623XXSP,2013-01-10 13:44:00,
2013-01-10 08:49:00,26.8,22.0,30.49,West,270,0.0,0.0,82,0.00,,,0.00,WUHU21623XXSP,2013-01-10 13:49:00,
2013-01-10 08:55:00,27.1,22.3,30.49,West,270,0.0,0.0,82,0.00,,,0.00,WUHU21623XXSP,2013-01-10 13:55:00,
2013-01-10 09:00:00,27.5,22.7,30.49,West,270,0.0,0.0,82,0.00,,,0.00,WUHU21623XXSP,2013-01-10 14:00:00,
2013-01-10 09:05:00,27.7,22.9,30.49,West,270,0.0,0.0,82,0.00,,,0.00,WUHU21623XXSP,2013-01-10 14:05:00,
2013-01-10 09:09:00,28.2,23.4,30.49,West,270,0.0,0.0,82,0.00,,,0.00,WUHU21623XXSP,2013-01-10 14:09:00,
2013-01-10 09:14:00,28.8,24.2,30.49,NNE,22,0.0,0.0,83,0.00,,,0.00,WUHU21623XXSP,2013-01-10 14:14:00,
2013-01-10 09:19:00,28.8,24.2,30.49,ENE,67,0.0,0.0,83,0.00,,,0.00,WUHU21623XXSP,2013-01-10 14:19:00,
2013-01-10 09:24:00,30.0,25.5,30.49,ESE,112,0.0,0.0,83,0.00,,,0.00,WUHU21623XXSP,2013-01-10 14:24:00,
2013-01-10 09:29:00,30.6,26.0,30.49,ESE,112,0.0,0.0,83,0.00,,,0.00,WUHU21623XXSP,2013-01-10 14:29:00,
2013-01-10 09:34:00,30.7,26.2,30.49,SE,135,0.2,0.2,83,0.00,,,0.00,WUHU21623XXSP,2013-01-10 14:34:00,
2013-01-10 09:39:00,31.3,26.2,30.49,ENE,67,2.5,2.5,81,0.00,,,0.00,WUHU21623XXSP,2013-01-10 14:39:00,
2013-01-10 09:44:00,32.2,27.1,30.48,ESE,112,1.8,2.5,81,0.00,,,0.00,WUHU21623XXSP,2013-01-10 14:44:00,
2013-01-10 09:49:00,32.4,26.9,30.49,East,90,2.7,2.7,80,0.00,,,0.00,WUHU21623XXSP,2013-01-10 14:49:00,
2013-01-10 09:54:00,32.5,27.1,30.48,ENE,67,0.9,2.7,80,0.00,,,0.00,WUHU21623XXSP,2013-01-10 14:54:00,
2013-01-10 09:59:00,32.7,26.9,30.49,ESE,112,0.0,0.9,79,0.00,,,0.00,WUHU21623XXSP,2013-01-10 14:59:00,
2013-01-10 10:04:00,32.9,27.1,30.49,ESE,112,0.0,0.0,79,0.00,,,0.00,WUHU21623XXSP,2013-01-10 15:04:00,
2013-01-10 10:09:00,32.9,27.1,30.48,East,90,0.0,0.0,79,0.00,,,0.00,WUHU21623XXSP,2013-01-10 15:09:00,
2013-01-10 10:14:00,33.1,26.9,30.48,ESE,112,0.9,0.9,78,0.00,,,0.00,WUHU21623XXSP,2013-01-10 15:14:00,
2013-01-10 10:19:00,33.4,27.2,30.49,East,90,0.0,0.9,78,0.00,,,0.00,WUHU21623XXSP,2013-01-10 15:19:00,
2013-01-10 10:24:00,33.4,27.2,30.48,ENE,67,0.0,0.9,78,0.00,,,0.00,WUHU21623XXSP,2013-01-10 15:24:00,
2013-01-10 10:29:00,33.6,27.4,30.48,ENE,67,0.0,0.4,78,0.00,,,0.00,WUHU21623XXSP,2013-01-10 15:29:00,
2013-01-10 10:34:00,33.6,27.4,30.48,NE,45,3.6,3.6,78,0.00,,,0.00,WUHU21623XXSP,2013-01-10 15:34:00,
2013-01-10 10:39:00,33.8,27.2,30.47,East,90,2.0,3.6,77,0.00,,,0.00,WUHU21623XXSP,2013-01-10 15:39:00,
2013-01-10 10:44:00,34.0,27.4,30.47,ENE,67,0.4,2.0,77,0.00,,,0.00,WUHU21623XXSP,2013-01-10 15:44:00,
2013-01-10 10:49:00,34.3,27.8,30.47,East,90,1.1,1.1,77,0.00,,,0.00,WUHU21623XXSP,2013-01-10 15:49:00,
2013-01-10 10:54:00,34.3,27.8,30.48,ESE,112,3.8,3.8,77,0.00,,,0.00,WUHU21623XXSP,2013-01-10 15:54:00,
2013-01-10 10:59:00,34.3,27.8,30.48,ESE,112,3.8,3.8,77,0.00,,,0.00,WUHU21623XXSP,2013-01-10 15:59:00,
2013-01-10 11:04:00,34.0,27.3,30.48,ESE,112,0.9,3.8,76,0.00,,,0.00,WUHU21623XXSP,2013-01-10 16:04:00,
2013-01-10 11:09:00,33.9,27.2,30.48,ESE,112,0.9,3.8,76,0.00,,,0.00,WUHU21623XXSP,2013-01-10 16:09:00,
2013-01-10 11:14:00,34.0,27.3,30.47,East,90,0.0,0.9,76,0.00,,,0.00,WUHU21623XXSP,2013-01-10 16:14:00,
2013-01-10 11:19:00,33.7,27.0,30.47,ESE,112,0.0,0.9,76,0.00,,,0.00,WUHU21623XXSP,2013-01-10 16:19:00,
2013-01-10 11:24:00,33.6,26.9,30.47,ESE,112,2.0,2.0,76,0.00,,,0.00,WUHU21623XXSP,2013-01-10 16:24:00,
2013-01-10 11:29:00,33.4,26.4,30.46,ENE,67,2.7,3.6,75,0.00,,,0.00,WUHU21623XXSP,2013-01-10 16:29:00,
2013-01-10 11:34:00,33.3,26.3,30.45,ENE,67,3.4,3.6,75,0.00,,,0.00,WUHU21623XXSP,2013-01-10 16:34:00,
2013-01-10 11:39:00,33.0,26.0,30.45,ESE,111,6.2,6.5,75,0.00,,,0.00,WUHU21623XXSP,2013-01-10 16:39:00,
2013-01-10 11:44:00,33.1,26.1,30.45,ESE,112,0.0,6.5,75,0.00,,,0.00,WUHU21623XXSP,2013-01-10 16:44:00,
2013-01-10 11:49:00,32.8,25.5,30.45,ESE,112,8.1,8.1,74,0.00,,,0.00,WUHU21623XXSP,2013-01-10 16:49:00,
2013-01-10 11:54:00,32.9,25.5,30.45,ESE,112,3.6,8.1,74,0.00,,,0.00,WUHU21623XXSP,2013-01-10 16:54:00,
2013-01-10 11:59:00,32.8,25.5,30.45,East,90,0.0,8.1,74,0.00,,,0.00,WUHU21623XXSP,2013-01-10 16:59:00,
2013-01-10 12:04:00,32.5,25.2,30.45,East,90,6.7,6.7,74,0.00,,,0.00,WUHU21623XXSP,2013-01-10 17:04:00,
2013-01-10 12:09:00,32.5,24.8,30.45,SE,135,6.5,6.7,73,0.00,,,0.00,WUHU21623XXSP,2013-01-10 17:09:00,
2013-01-10 12:14:00,32.4,24.8,30.44,East,90,3.1,6.7,73,0.00,,,0.00,WUHU21623XXSP,2013-01-10 17:14:00,
2013-01-10 12:19:00,32.2,24.6,30.44,SE,135,1.3,6.5,73,0.00,,,0.00,WUHU21623XXSP,2013-01-10 17:19:00,
2013-01-10 12:24:00,32.2,24.5,30.43,East,86,5.4,5.6,73,0.00,,,0.00,WUHU21623XXSP,2013-01-10 17:24:00,
2013-01-10 12:29:00,32.0,24.3,30.42,NE,45,2.8,5.6,73,0.00,,,0.00,WUHU21623XXSP,2013-01-10 17:29:00,
2013-01-10 12:34:00,31.8,24.2,30.41,NE,45,4.0,4.0,73,0.00,,,0.00,WUHU21623XXSP,2013-01-10 17:34:00,
2013-01-10 12:39:00,31.6,24.0,30.41,SE,134,6.4,6.5,73,0.00,,,0.00,WUHU21623XXSP,2013-01-10 17:39:00,
2013-01-10 12:44:00,31.5,23.8,30.40,ESE,112,1.8,6.5,73,0.00,,,0.00,WUHU21623XXSP,2013-01-10 17:44:00,
2013-01-10 12:49:00,31.5,23.9,30.40,East,90,4.5,4.9,73,0.00,,,0.00,WUHU21623XXSP,2013-01-10 17:49:00,
2013-01-10 12:54:00,31.3,23.7,30.40,ESE,111,7.1,7.4,73,0.00,,,0.00,WUHU21623XXSP,2013-01-10 17:54:00,
2013-01-10 12:59:00,31.1,23.5,30.39,East,96,1.4,7.4,73,0.00,,,0.00,WUHU21623XXSP,2013-01-10 17:59:00,
2013-01-10 13:04:00,31.0,23.4,30.39,NE,45,0.0,2.0,73,0.00,,,0.00,WUHU21623XXSP,2013-01-10 18:04:00,
2013-01-10 13:09:00,31.1,23.1,30.39,East,90,0.4,0.9,72,0.00,,,0.00,WUHU21623XXSP,2013-01-10 18:09:00,
2013-01-10 13:14:00,31.1,23.2,30.39,ESE,112,5.1,5.1,72,0.00,,,0.00,WUHU21623XXSP,2013-01-10 18:14:00,
2013-01-10 13:19:00,31.0,23.1,30.39,NE,45,1.6,5.1,72,0.00,,,0.00,WUHU21623XXSP,2013-01-10 18:19:00,
2013-01-10 13:24:00,30.9,23.0,30.39,East,90,0.0,5.1,72,0.00,,,0.00,WUHU21623XXSP,2013-01-10 18:24:00,
2013-01-10 13:29:00,31.0,23.1,30.38,ENE,67,0.7,2.9,72,0.00,,,0.00,WUHU21623XXSP,2013-01-10 18:29:00,
2013-01-10 13:34:00,30.8,22.5,30.38,East,90,7.6,7.6,71,0.00,,,0.00,WUHU21623XXSP,2013-01-10 18:34:00,
2013-01-10 13:39:00,30.9,22.7,30.37,East,90,7.2,7.6,71,0.00,,,0.00,WUHU21623XXSP,2013-01-10 18:39:00,
2013-01-10 13:44:00,31.0,22.7,30.37,East,90,1.1,7.6,71,0.00,,,0.00,WUHU21623XXSP,2013-01-10 18:44:00,
2013-01-10 13:49:00,30.9,22.7,30.37,ESE,112,6.9,6.9,71,0.00,,,0.00,WUHU21623XXSP,2013-01-10 18:49:00,
2013-01-10 13:54:00,30.9,22.7,30.36,ENE,67,3.4,6.9,71,0.00,,,0.00,WUHU21623XXSP,2013-01-10 18:54:00,
2013-01-10 13:59:00,30.9,22.7,30.36,ENE,67,1.1,3.4,71,0.00,,,0.00,WUHU21623XXSP,2013-01-10 18:59:00,
2013-01-10 14:04:00,31.1,22.9,30.36,ENE,65,1.8,6.3,71,0.00,,,0.00,WUHU21623XXSP,2013-01-10 19:04:00,
2013-01-10 14:09:00,31.1,22.9,30.35,ESE,112,0.0,6.3,71,0.00,,,0.00,WUHU21623XXSP,2013-01-10 19:09:00,
2013-01-10 14:14:00,31.2,22.9,30.35,East,90,1.6,2.2,71,0.00,,,0.00,WUHU21623XXSP,2013-01-10 19:14:00,
2013-01-10 14:19:00,31.4,23.1,30.34,ENE,67,3.1,3.1,71,0.00,,,0.00,WUHU21623XXSP,2013-01-10 19:19:00,
2013-01-10 14:24:00,31.7,23.4,30.34,ESE,112,4.7,4.7,71,0.00,,,0.00,WUHU21623XXSP,2013-01-10 19:24:00,
2013-01-10 14:29:00,31.7,23.5,30.34,NE,45,1.1,4.7,71,0.00,,,0.00,WUHU21623XXSP,2013-01-10 19:29:00,
2013-01-10 14:34:00,32.1,23.8,30.33,ESE,112,2.9,2.9,71,0.00,,,0.00,WUHU21623XXSP,2013-01-10 19:34:00,
2013-01-10 14:40:00,32.4,24.1,30.33,SE,135,1.8,2.9,71,0.00,,,0.00,WUHU21623XXSP,2013-01-10 19:40:00,
2013-01-10 14:44:00,32.5,24.2,30.33,East,90,4.3,4.3,71,0.00,,,0.00,WUHU21623XXSP,2013-01-10 19:44:00,
2013-01-10 14:49:00,32.7,24.0,30.33,East,90,0.0,4.3,70,0.00,,,0.00,WUHU21623XXSP,2013-01-10 19:49:00,
2013-01-10 14:54:00,32.8,24.1,30.32,East,90,3.6,4.3,70,0.00,,,0.00,WUHU21623XXSP,2013-01-10 19:54:00,
2013-01-10 14:59:00,33.1,24.5,30.32,East,90,2.5,3.6,70,0.00,,,0.00,WUHU21623XXSP,2013-01-10 19:59:00,
2013-01-10 15:05:00,33.1,24.4,30.31,East,90,2.5,2.5,70,0.00,,,0.00,WUHU21623XXSP,2013-01-10 20:05:00,
2013-01-10 15:10:00,33.3,24.6,30.31,East,88,3.9,4.0,70,0.00,,,0.00,WUHU21623XXSP,2013-01-10 20:10:00,
2013-01-10 15:15:00,33.4,24.8,30.31,SSE,157,4.0,4.0,70,0.00,,,0.00,WUHU21623XXSP,2013-01-10 20:15:00,
2013-01-10 15:20:00,33.6,25.0,30.31,ESE,112,0.0,4.0,70,0.00,,,0.00,WUHU21623XXSP,2013-01-10 20:20:00,
2013-01-10 15:25:00,33.6,25.0,30.30,NE,47,3.1,4.0,70,0.00,,,0.00,WUHU21623XXSP,2013-01-10 20:25:00,
2013-01-10 15:30:00,33.9,25.5,30.31,East,90,1.8,4.0,71,0.00,,,0.00,WUHU21623XXSP,2013-01-10 20:30:00,
2013-01-10 15:35:00,34.1,25.7,30.31,ESE,112,1.6,4.5,71,0.00,,,0.00,WUHU21623XXSP,2013-01-10 20:35:00,
2013-01-10 15:40:00,34.3,26.0,30.30,ENE,67,4.5,4.5,71,0.00,,,0.00,WUHU21623XXSP,2013-01-10 20:40:00,
2013-01-10 15:45:00,34.6,26.2,30.30,East,90,4.0,4.5,71,0.00,,,0.00,WUHU21623XXSP,2013-01-10 20:45:00,
2013-01-10 15:50:00,34.8,26.4,30.30,ENE,67,0.0,4.5,71,0.00,,,0.00,WUHU21623XXSP,2013-01-10 20:50:00,
2013-01-10 15:55:00,35.0,26.7,30.30,ESE,112,4.9,4.9,71,0.00,,,0.00,WUHU21623XXSP,2013-01-10 20:55:00,
2013-01-10 16:00:00,35.3,26.9,30.30,ESE,112,4.8,4.9,71,0.00,,,0.00,WUHU21623XXSP,2013-01-10 21:00:00,
2013-01-10 16:05:00,35.6,27.2,30.29,NE,45,4.3,4.9,71,0.00,,,0.00,WUHU21623XXSP,2013-01-10 21:05:00,
2013-01-10 16:10:00,35.9,27.4,30.30,SE,135,0.0,4.7,71,0.00,,,0.00,WUHU21623XXSP,2013-01-10 21:10:00,
2013-01-10 16:15:00,36.1,27.7,30.29,ENE,63,1.4,4.3,71,0.00,,,0.00,WUHU21623XXSP,2013-01-10 21:15:00,
2013-01-10 16:20:00,36.4,28.0,30.29,ESE,112,4.3,4.3,71,0.00,,,0.00,WUHU21623XXSP,2013-01-10 21:20:00,
2013-01-10 16:25:00,36.7,28.3,30.29,ENE,67,3.4,4.3,71,0.00,,,0.00,WUHU21623XXSP,2013-01-10 21:25:00,
2013-01-10 16:30:00,37.0,28.5,30.29,SE,135,5.8,5.8,71,0.00,,,0.00,WUHU21623XXSP,2013-01-10 21:30:00,
2013-01-10 16:35:00,37.3,28.9,30.29,East,90,3.4,5.8,71,0.00,,,0.00,WUHU21623XXSP,2013-01-10 21:35:00,
2013-01-10 16:40:00,37.6,29.1,30.28,East,95,4.3,6.7,71,0.00,,,0.00,WUHU21623XXSP,2013-01-10 21:40:00,
2013-01-10 16:45:00,37.9,29.4,30.29,ESE,112,3.6,6.7,71,0.00,,,0.00,WUHU21623XXSP,2013-01-10 21:45:00,
2013-01-10 16:50:00,38.1,29.6,30.29,ENE,67,6.5,6.5,71,0.00,,,0.00,WUHU21623XXSP,2013-01-10 21:50:00,
2013-01-10 16:55:00,38.2,29.7,30.29,ENE,60,4.6,6.5,71,0.00,,,0.00,WUHU21623XXSP,2013-01-10 21:55:00,
2013-01-10 17:01:00,38.5,29.9,30.29,East,90,3.4,6.5,71,0.00,,,0.00,WUHU21623XXSP,2013-01-10 22:01:00,
2013-01-10 17:06:00,38.5,29.9,30.29,ENE,67,3.6,3.6,71,0.00,,,0.00,WUHU21623XXSP,2013-01-10 22:06:00,
2013-01-10 17:11:00,38.3,30.1,30.28,East,90,6.0,6.0,72,0.00,,,0.00,WUHU21623XXSP,2013-01-10 22:11:00,
2013-01-10 17:16:00,38.1,29.9,30.27,NE,45,1.8,6.0,72,0.00,,,0.00,WUHU21623XXSP,2013-01-10 22:16:00,
2013-01-10 17:21:00,37.9,30.0,30.28,East,90,5.6,6.0,73,0.00,,,0.00,WUHU21623XXSP,2013-01-10 22:21:00,
2013-01-10 17:26:00,37.8,29.9,30.28,East,90,6.5,6.5,73,0.00,,,0.00,WUHU21623XXSP,2013-01-10 22:26:00,
2013-01-10 17:31:00,37.4,29.9,30.27,ESE,112,0.7,6.5,74,0.00,,,0.00,WUHU21623XXSP,2013-01-10 22:31:00,
2013-01-10 17:36:00,37.2,29.7,30.27,ENE,67,1.6,1.6,74,0.00,,,0.00,WUHU21623XXSP,2013-01-10 22:36:00,
2013-01-10 17:41:00,37.2,30.0,30.26,ESE,112,2.5,2.5,75,0.00,,,0.00,WUHU21623XXSP,2013-01-10 22:41:00,
2013-01-10 17:46:00,37.2,30.0,30.26,East,90,7.8,7.8,75,0.00,,,0.00,WUHU21623XXSP,2013-01-10 22:46:00,
2013-01-10 17:51:00,37.2,30.0,30.26,ESE,112,2.0,7.8,75,0.00,,,0.00,WUHU21623XXSP,2013-01-10 22:51:00,
2013-01-10 17:56:00,37.0,29.8,30.26,East,82,1.5,2.0,75,0.00,,,0.00,WUHU21623XXSP,2013-01-10 22:56:00,
2013-01-10 18:01:00,36.7,29.8,30.26,East,90,2.9,2.9,76,0.00,,,0.00,WUHU21623XXSP,2013-01-10 23:01:00,
2013-01-10 18:06:00,36.7,29.8,30.25,East,90,2.9,2.9,76,0.00,,,0.00,WUHU21623XXSP,2013-01-10 23:06:00,
2013-01-10 18:11:00,36.5,29.9,30.25,ENE,67,2.9,2.9,77,0.00,,,0.00,WUHU21623XXSP,2013-01-10 23:11:00,
2013-01-10 18:16:00,36.3,29.8,30.25,ESE,112,0.4,3.1,77,0.00,,,0.00,WUHU21623XXSP,2013-01-10 23:16:00,
2013-01-10 18:21:00,36.3,30.1,30.25,East,90,0.8,3.1,78,0.00,,,0.00,WUHU21623XXSP,2013-01-10 23:21:00,
2013-01-10 18:26:00,36.3,30.1,30.24,NE,45,2.5,2.5,78,0.00,,,0.00,WUHU21623XXSP,2013-01-10 23:26:00,
2013-01-10 18:31:00,36.3,30.1,30.25,East,90,2.2,2.5,78,0.00,,,0.00,WUHU21623XXSP,2013-01-10 23:31:00,
2013-01-10 18:36:00,36.3,30.1,30.24,SE,135,0.0,2.5,78,0.00,,,0.00,WUHU21623XXSP,2013-01-10 23:36:00,
2013-01-10 18:41:00,36.1,29.9,30.24,East,90,0.0,2.2,78,0.00,,,0.00,WUHU21623XXSP,2013-01-10 23:41:00,
2013-01-10 18:46:00,36.0,30.1,30.24,ENE,67,0.9,0.9,79,0.00,,,0.00,WUHU21623XXSP,2013-01-10 23:46:00,
2013-01-10 18:51:00,35.8,29.9,30.23,ENE,67,0.0,0.9,79,0.00,,,0.00,WUHU21623XXSP,2013-01-10 23:51:00,
2013-01-10 18:56:00,35.8,30.2,30.22,NE,45,2.7,2.7,80,0.00,,,0.00,WUHU21623XXSP,2013-01-10 23:56:00,
2013-01-10 19:01:00,35.8,30.2,30.22,East,90,1.8,2.7,80,0.00,,,0.00,WUHU21623XXSP,2013-01-11 00:01:00,
2013-01-10 19:06:00,35.8,30.5,30.22,ENE,67,0.0,1.8,81,0.00,,,0.00,WUHU21623XXSP,2013-01-11 00:06:00,
2013-01-10 19:11:00,35.8,30.5,30.22,ENE,67,0.9,0.9,81,0.00,,,0.00,WUHU21623XXSP,2013-01-11 00:11:00,
2013-01-10 19:16:00,35.8,30.5,30.21,ENE,67,3.8,3.8,81,0.00,,,0.00,WUHU21623XXSP,2013-01-11 00:16:00,
2013-01-10 19:21:00,35.8,30.5,30.21,SE,135,2.5,3.8,81,0.00,,,0.00,WUHU21623XXSP,2013-01-11 00:21:00,
2013-01-10 19:26:00,35.8,30.5,30.20,SSE,157,0.0,3.8,81,0.00,,,0.00,WUHU21623XXSP,2013-01-11 00:26:00,
2013-01-10 19:31:00,35.8,30.5,30.20,ESE,112,1.3,2.5,81,0.00,,,0.00,WUHU21623XXSP,2013-01-11 00:31:00,
2013-01-10 19:36:00,36.0,31.0,30.20,SE,135,1.1,1.3,82,0.00,,,0.00,WUHU21623XXSP,2013-01-11 00:36:00,
2013-01-10 19:41:00,36.0,31.0,30.19,East,90,4.7,4.7,82,0.00,,,0.00,WUHU21623XXSP,2013-01-11 00:41:00,
2013-01-10 19:46:00,36.1,31.1,30.18,ENE,67,3.4,4.7,82,0.00,,,0.00,WUHU21623XXSP,2013-01-11 00:46:00,
2013-01-10 19:51:00,36.1,31.1,30.18,ESE,112,0.9,3.4,82,0.00,,,0.00,WUHU21623XXSP,2013-01-11 00:51:00,
2013-01-10 19:56:00,36.1,30.8,30.18,SE,130,1.8,1.8,81,0.00,,,0.00,WUHU21623XXSP,2013-01-11 00:56:00,
2013-01-10 20:01:00,36.3,31.0,30.18,ESE,112,2.9,2.9,81,0.00,,,0.00,WUHU21623XXSP,2013-01-11 01:01:00,
2013-01-10 20:06:00,36.3,31.3,30.17,ENE,67,8.1,8.1,82,0.00,,,0.00,WUHU21623XXSP,2013-01-11 01:06:00,
2013-01-10 20:11:00,36.3,31.3,30.17,ENE,67,1.7,8.1,82,0.00,,,0.00,WUHU21623XXSP,2013-01-11 01:11:00,
2013-01-10 20:16:00,36.5,31.5,30.18,East,90,3.6,3.6,82,0.00,,,0.00,WUHU21623XXSP,2013-01-11 01:16:00,
2013-01-10 20:21:00,36.5,31.5,30.17,ENE,67,4.5,4.5,82,0.00,,,0.00,WUHU21623XXSP,2013-01-11 01:21:00,
2013-01-10 20:26:00,36.7,31.7,30.16,SE,135,0.0,4.5,82,0.00,,,0.00,WUHU21623XXSP,2013-01-11 01:26:00,
2013-01-10 20:31:00,36.7,31.7,30.16,East,90,1.6,4.5,82,0.00,,,0.00,WUHU21623XXSP,2013-01-11 01:31:00,
2013-01-10 20:36:00,36.7,31.7,30.15,ESE,107,4.2,7.2,82,0.00,,,0.00,WUHU21623XXSP,2013-01-11 01:36:00,
2013-01-10 20:41:00,36.5,31.5,30.15,ENE,67,3.5,7.2,82,0.00,,,0.00,WUHU21623XXSP,2013-01-11 01:41:00,
2013-01-10 20:46:00,36.3,31.3,30.14,East,90,7.2,7.2,82,0.00,,,0.00,WUHU21623XXSP,2013-01-11 01:46:00,
2013-01-10 20:51:00,36.3,31.3,30.14,ESE,112,4.3,7.2,82,0.00,,,0.00,WUHU21623XXSP,2013-01-11 01:51:00,
2013-01-10 20:56:00,36.3,31.6,30.14,ESE,112,0.9,4.3,83,0.00,,,0.00,WUHU21623XXSP,2013-01-11 01:56:00,
2013-01-10 21:01:00,36.3,31.6,30.14,ENE,67,5.4,5.4,83,0.00,,,0.00,WUHU21623XXSP,2013-01-11 02:01:00,
2013-01-10 21:06:00,36.3,31.6,30.13,ESE,106,2.0,5.4,83,0.00,,,0.00,WUHU21623XXSP,2013-01-11 02:06:00,
2013-01-10 21:11:00,36.3,31.9,30.13,East,90,0.0,4.5,84,0.00,,,0.00,WUHU21623XXSP,2013-01-11 02:11:00,
2013-01-10 21:16:00,36.5,32.1,30.13,ESE,112,1.1,4.3,84,0.00,,,0.00,WUHU21623XXSP,2013-01-11 02:16:00,
2013-01-10 21:21:00,36.5,32.1,30.13,SE,130,4.1,6.3,84,0.00,,,0.00,WUHU21623XXSP,2013-01-11 02:21:00,
2013-01-10 21:26:00,36.5,32.1,30.13,East,90,0.9,6.3,84,0.00,,,0.00,WUHU21623XXSP,2013-01-11 02:26:00,
2013-01-10 21:32:00,36.5,32.1,30.13,East,90,2.5,4.0,84,0.00,,,0.00,WUHU21623XXSP,2013-01-11 02:32:00,
2013-01-10 21:37:00,36.7,32.3,30.12,ESE,112,7.2,7.2,84,0.00,,,0.00,WUHU21623XXSP,2013-01-11 02:37:00,
2013-01-10 21:42:00,36.7,32.3,30.12,ESE,112,3.4,7.2,84,0.00,,,0.00,WUHU21623XXSP,2013-01-11 02:42:00,
2013-01-10 21:47:00,36.7,32.3,30.11,ESE,104,1.4,3.4,84,0.00,,,0.00,WUHU21623XXSP,2013-01-11 02:47:00,
2013-01-10 21:52:00,36.9,32.7,30.11,East,90,1.6,3.4,85,0.00,,,0.00,WUHU21623XXSP,2013-01-11 02:52:00,
2013-01-10 21:57:00,37.0,32.9,30.11,SSE,157,2.0,2.9,85,0.00,,,0.00,WUHU21623XXSP,2013-01-11 02:57:00,
2013-01-10 22:02:00,37.0,32.9,30.11,SE,135,4.9,4.9,85,0.00,,,0.00,WUHU21623XXSP,2013-01-11 03:02:00,
2013-01-10 22:07:00,37.2,33.1,30.10,SSE,157,0.0,4.9,85,0.00,,,0.00,WUHU21623XXSP,2013-01-11 03:07:00,
2013-01-10 22:12:00,37.2,33.1,30.10,ESE,112,1.3,4.9,85,0.00,,,0.00,WUHU21623XXSP,2013-01-11 03:12:00,
2013-01-10 22:17:00,37.4,33.3,30.10,ENE,67,0.0,2.7,85,0.00,,,0.00,WUHU21623XXSP,2013-01-11 03:17:00,
2013-01-10 22:22:00,37.4,33.3,30.10,East,90,0.9,2.7,85,0.00,,,0.00,WUHU21623XXSP,2013-01-11 03:22:00,
2013-01-10 22:27:00,37.6,33.7,30.09,ENE,67,4.3,4.3,86,0.00,,,0.00,WUHU21623XXSP,2013-01-11 03:27:00,
2013-01-10 22:32:00,37.8,33.9,30.09,South,180,0.0,4.3,86,0.00,,,0.00,WUHU21623XXSP,2013-01-11 03:32:00,
2013-01-10 22:37:00,37.9,34.1,30.09,ESE,112,0.0,4.3,86,0.00,,,0.00,WUHU21623XXSP,2013-01-11 03:37:00,
2013-01-10 22:42:00,37.9,34.1,30.09,ESE,112,1.6,1.6,86,0.00,,,0.00,WUHU21623XXSP,2013-01-11 03:42:00,
2013-01-10 22:47:00,37.9,34.1,30.09,ESE,112,1.1,1.6,86,0.00,,,0.00,WUHU21623XXSP,2013-01-11 03:47:00,
2013-01-10 22:52:00,38.1,34.3,30.09,ESE,112,1.1,1.6,86,0.00,,,0.00,WUHU21623XXSP,2013-01-11 03:52:00,
2013-01-10 22:57:00,38.1,34.3,30.08,ESE,112,0.0,1.1,86,0.00,,,0.00,WUHU21623XXSP,2013-01-11 03:57:00,
2013-01-10 23:02:00,38.3,34.4,30.08,ESE,112,1.1,1.1,86,0.00,,,0.00,WUHU21623XXSP,2013-01-11 04:02:00,
2013-01-10 23:07:00,38.5,34.6,30.08,SE,135,1.6,1.6,86,0.00,,,0.00,WUHU21623XXSP,2013-01-11 04:07:00,
2013-01-10 23:12:00,38.5,34.6,30.08,East,90,2.7,2.7,86,0.00,,,0.00,WUHU21623XXSP,2013-01-11 04:12:00,
2013-01-10 23:17:00,38.7,34.8,30.08,ENE,67,4.7,4.7,86,0.00,,,0.00,WUHU21623XXSP,2013-01-11 04:17:00,
2013-01-10 23:22:00,38.8,35.0,30.08,SE,135,1.1,4.7,86,0.00,,,0.00,WUHU21623XXSP,2013-01-11 04:22:00,
2013-01-10 23:27:00,38.8,35.0,30.08,ESE,112,0.0,4.7,86,0.00,,,0.00,WUHU21623XXSP,2013-01-11 04:27:00,
2013-01-10 23:32:00,38.8,35.0,30.08,SE,135,1.6,3.1,86,0.00,,,0.00,WUHU21623XXSP,2013-01-11 04:32:00,
2013-01-10 23:37:00,38.8,35.0,30.07,East,90,0.0,3.1,86,0.00,,,0.00,WUHU21623XXSP,2013-01-11 04:37:00,
2013-01-10 23:42:00,38.8,35.0,30.06,East,90,0.0,1.6,86,0.00,,,0.00,WUHU21623XXSP,2013-01-11 04:42:00,
2013-01-10 23:47:00,38.8,35.0,30.06,ENE,67,0.0,0.0,86,0.00,,,0.00,WUHU21623XXSP,2013-01-11 04:47:00,
2013-01-10 23:52:00,38.8,35.0,30.06,ESE,112,0.0,0.0,86,0.00,,,0.00,WUHU21623XXSP,2013-01-11 04:52:00,
2013-01-10 23:57:00,38.8,35.0,30.05,ESE,112,2.9,2.9,86,0.00,,,0.00,WUHU21623XXSP,2013-01-11 04:57:00,